| time (UTC) | temp C | wind direction | speed KPH | gust KPH | rain 1hr cm | rain 24hr cm | rain mn cm | humidity % | barometer mb |
| 20260507093710 | 3 | 40 | 0.0 | 1.6 | 0.00 | 0.00 | 0.00 | 96 | 1013.0 |
| 20260507093210 | 3 | 0 | 0.0 | 1.6 | 0.00 | 0.00 | 0.00 | 96 | 1012.9 |
| 20260507092708 | 3 | 0 | 0.0 | 3.2 | 0.00 | 0.00 | 0.00 | 96 | 1012.9 |
| 20260507092210 | 3 | 0 | 0.0 | 3.2 | 0.00 | 0.00 | 0.00 | 96 | 1012.8 |
| 20260507091710 | 3 | 0 | 0.0 | 1.6 | 0.00 | 0.00 | 0.00 | 96 | 1012.8 |
| 20260507091428 | 3 | 0 | 0.0 | 0.0 | 0.00 | 0.00 | 0.00 | 96 | 1012.8 |
| 20260507090709 | 3 | 0 | 0.0 | 0.0 | 0.00 | 0.00 | 0.00 | 96 | 1012.8 |
| 20260507090204 | 3 | 0 | 0.0 | 1.6 | 0.00 | 0.00 | 0.00 | 96 | 1012.8 |
| 20260507085931 | 3 | 0 | 0.0 | 1.6 | 0.00 | 0.00 | 0.00 | 95 | 1012.8 |
| 20260507085153 | 3 | 82 | 0.0 | 1.6 | 0.00 | 0.00 | 0.00 | 96 | 1012.8 |
| 20260507084923 | 3 | 0 | 0.0 | 1.6 | 0.00 | 0.00 | 0.00 | 96 | 1012.8 |
| 20260507084421 | 3 | 0 | 0.0 | 1.6 | 0.00 | 0.00 | 0.00 | 96 | 1012.7 |
| 20260507084122 | 3 | 0 | 0.0 | 1.6 | 0.00 | 0.00 | 0.00 | 96 | 1012.6 |
| 20260507083141 | 3 | 0 | 0.0 | 1.6 | 0.00 | 0.00 | 0.00 | 96 | 1012.6 |
| 20260507082640 | 3 | 0 | 0.0 | 1.6 | 0.00 | 0.00 | 0.00 | 96 | 1012.5 |
| 20260507082359 | 4 | 46 | 0.0 | 1.6 | 0.00 | 0.00 | 0.00 | 97 | 1012.4 |
| 20260507081640 | 4 | 0 | 0.0 | 1.6 | 0.00 | 0.00 | 0.00 | 97 | 1012.4 |
| 20260507081141 | 4 | 0 | 0.0 | 1.6 | 0.00 | 0.00 | 0.00 | 97 | 1012.4 |
| 20260507080640 | 4 | 0 | 0.0 | 1.6 | 0.00 | 0.03 | 0.00 | 97 | 1012.4 |
| 20260507080141 | 4 | 348 | 0.0 | 1.6 | 0.00 | 0.03 | 0.00 | 97 | 1012.4 |
| 20260507075644 | 4 | 0 | 0.0 | 1.6 | 0.00 | 0.03 | 0.00 | 96 | 1012.4 |
| 20260507075143 | 4 | 0 | 0.0 | 1.6 | 0.00 | 0.03 | 0.00 | 96 | 1012.5 |
| 20260507074641 | 4 | 0 | 0.0 | 1.6 | 0.00 | 0.05 | 0.00 | 96 | 1012.5 |
| 20260507074128 | 4 | 0 | 0.0 | 1.6 | 0.00 | 0.08 | 0.00 | 96 | 1012.5 |
| 20260507073628 | 4 | 0 | 0.0 | 3.2 | 0.00 | 0.08 | 0.00 | 96 | 1012.5 |
| 20260507073124 | 5 | 0 | 0.0 | 3.2 | 0.00 | 0.10 | 0.00 | 96 | 1012.4 |
| 20260507072626 | 5 | 65 | 1.6 | 3.2 | 0.00 | 0.10 | 0.00 | 96 | 1012.4 |
| 20260507072126 | 5 | 67 | 1.6 | 3.2 | 0.00 | 0.13 | 0.00 | 96 | 1012.4 |
| 20260507071627 | 5 | 70 | 1.6 | 3.2 | 0.00 | 0.15 | 0.00 | 97 | 1012.4 |
| 20260507071349 | 5 | 0 | 0.0 | 1.6 | 0.00 | 0.23 | 0.00 | 97 | 1012.4 |
| 20260507070621 | 5 | 0 | 0.0 | 3.2 | 0.00 | 0.28 | 0.00 | 97 | 1012.4 |
| 20260507070120 | 5 | 0 | 0.0 | 3.2 | 0.00 | 0.30 | 0.00 | 96 | 1012.4 |
| 20260507065612 | 5 | 0 | 0.0 | 1.6 | 0.00 | 0.33 | 0.00 | 96 | 1012.4 |
| 20260507065329 | 5 | 67 | 0.0 | 1.6 | 0.00 | 0.33 | 0.00 | 96 | 1012.5 |
| 20260507064611 | 5 | 70 | 0.0 | 3.2 | 0.00 | 0.33 | 0.00 | 96 | 1012.5 |
| 20260507064110 | 5 | 61 | 0.0 | 3.2 | 0.00 | 0.33 | 0.00 | 96 | 1012.5 |
| 20260507063840 | 5 | 0 | 0.0 | 1.6 | 0.00 | 0.33 | 0.00 | 96 | 1012.6 |
| 20260507063113 | 5 | 0 | 0.0 | 1.6 | 0.00 | 0.36 | 0.00 | 96 | 1012.6 |
| 20260507062613 | 5 | 161 | 0.0 | 1.6 | 0.00 | 0.36 | 0.00 | 96 | 1012.6 |
| 20260507062113 | 5 | 0 | 0.0 | 1.6 | 0.00 | 0.36 | 0.00 | 96 | 1012.6 |
| 20260507061614 | 6 | 0 | 0.0 | 1.6 | 0.00 | 0.38 | 0.00 | 96 | 1012.6 |
| 20260507061111 | 6 | 0 | 0.0 | 0.0 | 0.00 | 0.38 | 0.00 | 96 | 1012.6 |
| 20260507060609 | 6 | 0 | 0.0 | 3.2 | 0.00 | 0.43 | 0.00 | 96 | 1012.7 |
| 20260507060109 | 6 | 25 | 0.0 | 3.2 | 0.00 | 0.48 | 0.00 | 95 | 1012.7 |
| 20260507055818 | 6 | 92 | 1.6 | 3.2 | 0.00 | 0.51 | 0.00 | 95 | 1012.7 |
| 20260507055100 | 6 | 0 | 1.6 | 3.2 | 0.00 | 0.53 | 0.00 | 96 | 1012.7 |
| 20260507054558 | 6 | 60 | 1.6 | 3.2 | 0.00 | 0.56 | 0.00 | 95 | 1012.7 |
| 20260507054315 | 6 | 0 | 0.0 | 3.2 | 0.00 | 0.58 | 0.00 | 95 | 1012.8 |
| 20260507053806 | 6 | 52 | 0.0 | 3.2 | 0.00 | 0.61 | 0.00 | 95 | 1012.8 |
| 20260507053042 | 6 | 0 | 0.0 | 3.2 | 0.00 | 0.61 | 0.00 | 95 | 1012.8 |
| 20260507052543 | 6 | 0 | 0.0 | 3.2 | 0.00 | 0.64 | 0.00 | 95 | 1012.8 |
| 20260507052043 | 6 | 18 | 0.0 | 3.2 | 0.00 | 0.69 | 0.00 | 95 | 1012.9 |
| 20260507051542 | 6 | 0 | 0.0 | 1.6 | 0.00 | 0.74 | 0.00 | 94 | 1013.1 |
| 20260507051044 | 6 | 4 | 0.0 | 1.6 | 0.00 | 0.79 | 0.00 | 94 | 1013.2 |
| 20260507050810 | 6 | 0 | 0.0 | 0.0 | 0.00 | 0.84 | 0.00 | 93 | 1013.3 |
| 20260507050044 | 6 | 0 | 0.0 | 0.0 | 0.00 | 0.94 | 0.00 | 93 | 1013.5 |
| 20260507045542 | 6 | 0 | 0.0 | 0.0 | 0.00 | 1.02 | 0.00 | 93 | 1013.5 |
| 20260507045315 | 7 | 0 | 0.0 | 1.6 | 0.00 | 1.07 | 0.00 | 92 | 1013.5 |
| 20260507044537 | 7 | 0 | 0.0 | 1.6 | 0.00 | 1.09 | 0.00 | 92 | 1013.5 |
| 20260507044033 | 7 | 351 | 0.0 | 0.0 | 0.00 | 1.09 | 0.00 | 92 | 1013.4 |
| 20260507043521 | 7 | 0 | 0.0 | 3.2 | 0.00 | 1.12 | 0.00 | 93 | 1013.3 |
| 20260507043013 | 7 | 335 | 1.6 | 3.2 | 0.00 | 1.17 | 0.00 | 93 | 1013.2 |
| 20260507042513 | 7 | 0 | 0.0 | 3.2 | 0.00 | 1.17 | 0.00 | 93 | 1013.2 |
| 20260507042012 | 7 | 0 | 1.6 | 3.2 | 0.00 | 1.19 | 0.00 | 93 | 1013.2 |
| 20260507041514 | 7 | 57 | 0.0 | 3.2 | 0.00 | 1.22 | 0.00 | 93 | 1013.2 |
| 20260507041248 | 7 | 73 | 0.0 | 3.2 | 0.00 | 1.24 | 0.00 | 93 | 1013.2 |
| 20260507040517 | 7 | 64 | 0.0 | 3.2 | 0.00 | 1.27 | 0.00 | 93 | 1013.2 |
| 20260507040014 | 7 | 0 | 0.0 | 3.2 | 0.00 | 1.27 | 0.00 | 92 | 1013.1 |
| 20260507035737 | 7 | 99 | 1.6 | 3.2 | 0.00 | 1.27 | 1.27 | 92 | 1013.2 |
| 20260507035015 | 7 | 0 | 1.6 | 3.2 | 0.00 | 1.30 | 1.27 | 92 | 1013.3 |
| 20260507034515 | 7 | 85 | 0.0 | 3.2 | 0.00 | 1.32 | 1.27 | 92 | 1013.4 |
| 20260507034011 | 7 | 0 | 1.6 | 3.2 | 0.00 | 1.32 | 1.27 | 91 | 1013.5 |
| 20260507033507 | 7 | 0 | 1.6 | 3.2 | 0.00 | 1.32 | 1.27 | 90 | 1013.5 |
| 20260507033006 | 7 | 64 | 1.6 | 3.2 | 0.00 | 1.32 | 1.27 | 89 | 1013.6 |
| 20260507032505 | 7 | 51 | 1.6 | 3.2 | 0.00 | 1.32 | 1.27 | 89 | 1013.7 |
| 20260507032241 | 7 | 0 | 1.6 | 4.8 | 0.00 | 1.32 | 1.27 | 90 | 1013.6 |
| 20260507031505 | 7 | 75 | 1.6 | 4.8 | 0.00 | 1.32 | 1.27 | 89 | 1013.7 |
| 20260507031004 | 7 | 64 | 1.6 | 4.8 | 0.00 | 1.32 | 1.27 | 88 | 1013.8 |
| 20260507030505 | 7 | 65 | 1.6 | 3.2 | 0.00 | 1.32 | 1.27 | 88 | 1013.9 |
| 20260507030456 | 7 | 80 | 1.6 | 3.2 | 0.00 | 1.32 | 1.27 | 88 | 1013.9 |
| 20260507025504 | 7 | 64 | 1.6 | 4.8 | 0.00 | 1.32 | 1.27 | 88 | 1013.9 |
| 20260507025222 | 8 | 87 | 1.6 | 4.8 | 0.00 | 1.32 | 1.27 | 87 | 1013.9 |
| 20260507024726 | 8 | 121 | 1.6 | 4.8 | 0.00 | 1.32 | 1.27 | 87 | 1013.9 |
| 20260507024005 | 8 | 0 | 1.6 | 4.8 | 0.00 | 1.35 | 1.27 | 87 | 1013.9 |
| 20260507023730 | 8 | 69 | 0.0 | 3.2 | 0.00 | 1.37 | 1.27 | 87 | 1013.9 |
| 20260507023005 | 8 | 60 | 0.0 | 3.2 | 0.00 | 1.37 | 1.27 | 86 | 1014.0 |
| 20260507022504 | 8 | 0 | 0.0 | 3.2 | 0.00 | 1.42 | 1.27 | 84 | 1014.0 |
| 20260507022005 | 8 | 0 | 1.6 | 3.2 | 0.00 | 1.45 | 1.27 | 83 | 1014.0 |
| 20260507021504 | 8 | 0 | 0.0 | 3.2 | 0.00 | 1.45 | 1.27 | 83 | 1014.0 |
| 20260507021001 | 8 | 64 | 0.0 | 3.2 | 0.00 | 1.47 | 1.27 | 83 | 1013.9 |
| 20260507020503 | 8 | 52 | 0.0 | 3.2 | 0.00 | 1.50 | 1.27 | 84 | 1013.8 |
| 20260507020002 | 8 | 0 | 0.0 | 3.2 | 0.00 | 1.52 | 1.27 | 84 | 1013.8 |
| 20260507015503 | 8 | 0 | 0.0 | 1.6 | 0.00 | 1.55 | 1.27 | 81 | 1013.8 |
| 20260507015002 | 8 | 0 | 0.0 | 1.6 | 0.00 | 1.55 | 1.27 | 80 | 1013.7 |
| 20260507014725 | 8 | 0 | 0.0 | 1.6 | 0.00 | 1.57 | 1.27 | 81 | 1013.7 |
| 20260507014002 | 8 | 0 | 0.0 | 1.6 | 0.00 | 1.57 | 1.27 | 82 | 1013.6 |
| 20260507013501 | 8 | 0 | 0.0 | 1.6 | 0.00 | 1.57 | 1.27 | 83 | 1013.5 |
| 20260507013002 | 8 | 0 | 0.0 | 1.6 | 0.00 | 1.57 | 1.27 | 83 | 1013.4 |
| 20260507012504 | 9 | 0 | 0.0 | 1.6 | 0.00 | 1.57 | 1.27 | 82 | 1013.4 |
| 20260507012003 | 9 | 0 | 0.0 | 3.2 | 0.00 | 1.60 | 1.27 | 81 | 1013.4 |
| 20260507011503 | 9 | 0 | 0.0 | 3.2 | 0.00 | 1.63 | 1.27 | 80 | 1013.5 |
| 20260507011000 | 9 | 47 | 0.0 | 3.2 | 0.00 | 1.68 | 1.27 | 79 | 1013.5 |
| 20260507010501 | 10 | 0 | 0.0 | 1.6 | 0.00 | 1.75 | 1.27 | 79 | 1013.5 |
| 20260507010001 | 10 | 0 | 0.0 | 1.6 | 0.00 | 1.78 | 1.27 | 77 | 1013.5 |
| 20260507005501 | 10 | 303 | 0.0 | 3.2 | 0.00 | 1.80 | 1.27 | 75 | 1013.6 |
| 20260507005001 | 10 | 358 | 0.0 | 3.2 | 0.00 | 1.83 | 1.27 | 75 | 1013.6 |
| 20260507004731 | 10 | 0 | 0.0 | 3.2 | 0.00 | 1.83 | 1.27 | 74 | 1013.5 |
| 20260507004002 | 11 | 0 | 0.0 | 3.2 | 0.00 | 1.83 | 1.27 | 74 | 1013.5 |
| 20260507003459 | 11 | 298 | 0.0 | 3.2 | 0.00 | 1.83 | 1.27 | 75 | 1013.4 |
| 20260507002959 | 11 | 0 | 0.0 | 3.2 | 0.00 | 1.83 | 1.27 | 75 | 1013.3 |
| 20260507002458 | 11 | 40 | 0.0 | 3.2 | 0.00 | 1.83 | 1.27 | 70 | 1013.4 |
| 20260507001957 | 11 | 0 | 0.0 | 3.2 | 0.00 | 1.83 | 1.27 | 72 | 1013.3 |
| 20260507001456 | 12 | 0 | 0.0 | 3.2 | 0.00 | 1.85 | 1.27 | 70 | 1013.2 |
| 20260507000954 | 12 | 32 | 1.6 | 3.2 | 0.00 | 1.85 | 1.27 | 71 | 1013.1 |
| 20260507000455 | 12 | 330 | 1.6 | 3.2 | 0.00 | 1.85 | 1.27 | 67 | 1013.1 |
| 20260506235955 | 12 | 0 | 1.6 | 3.2 | 0.00 | 1.85 | 1.27 | 63 | 1013.3 |
| 20260506235454 | 13 | 341 | 1.6 | 9.7 | 0.00 | 1.85 | 1.27 | 61 | 1013.1 |
| 20260506234955 | 13 | 0 | 1.6 | 9.7 | 0.00 | 1.88 | 1.27 | 61 | 1013.2 |
| 20260506234455 | 13 | 41 | 1.6 | 9.7 | 0.00 | 1.88 | 1.27 | 61 | 1013.4 |
| 20260506233954 | 13 | 251 | 1.6 | 4.8 | 0.00 | 1.88 | 1.27 | 60 | 1013.3 |
| 20260506233453 | 13 | 155 | 1.6 | 4.8 | 0.00 | 1.88 | 1.27 | 59 | 1013.4 |
| 20260506232951 | 13 | 27 | 1.6 | 8.0 | 0.00 | 1.88 | 1.27 | 60 | 1013.3 |
| 20260506232450 | 13 | 94 | 1.6 | 8.0 | 0.00 | 1.88 | 1.27 | 60 | 1013.1 |
| 20260506231949 | 13 | 14 | 1.6 | 6.4 | 0.00 | 1.88 | 1.27 | 60 | 1013.4 |
| 20260506231450 | 13 | 337 | 1.6 | 8.0 | 0.00 | 1.88 | 1.27 | 59 | 1013.2 |
| 20260506230951 | 13 | 57 | 1.6 | 8.0 | 0.00 | 1.88 | 1.27 | 58 | 1013.5 |
| 20260506230723 | 13 | 0 | 1.6 | 6.4 | 0.00 | 1.88 | 1.27 | 62 | 1013.1 |
| 20260506225950 | 13 | 65 | 1.6 | 6.4 | 0.00 | 1.88 | 1.27 | 58 | 1013.4 |
| 20260506225450 | 13 | 109 | 3.2 | 6.4 | 0.00 | 1.88 | 1.27 | 58 | 1013.5 |
| 20260506224951 | 13 | 28 | 3.2 | 8.0 | 0.00 | 1.88 | 1.27 | 55 | 1013.6 |
| 20260506224451 | 13 | 334 | 1.6 | 8.0 | 0.00 | 1.88 | 1.27 | 56 | 1013.5 |
| 20260506223952 | 13 | 84 | 1.6 | 6.4 | 0.00 | 1.88 | 1.27 | 59 | 1013.5 |
| 20260506223452 | 13 | 46 | 3.2 | 8.0 | 0.00 | 1.88 | 1.27 | 59 | 1013.3 |
| 20260506223217 | 13 | 316 | 3.2 | 8.0 | 0.00 | 1.88 | 1.27 | 55 | 1013.7 |
| 20260506222449 | 13 | 11 | 3.2 | 8.0 | 0.00 | 1.91 | 1.27 | 56 | 1013.8 |
| 20260506221947 | 13 | 31 | 1.6 | 8.0 | 0.00 | 1.91 | 1.27 | 60 | 1013.7 |
| 20260506221448 | 13 | 224 | 3.2 | 6.4 | 0.00 | 1.91 | 1.27 | 55 | 1013.7 |
| 20260506220944 | 13 | 307 | 3.2 | 6.4 | 0.00 | 1.91 | 1.27 | 54 | 1013.9 |
| 20260506220444 | 13 | 25 | 1.6 | 4.8 | 0.00 | 1.93 | 1.27 | 56 | 1013.8 |
| 20260506215944 | 13 | 323 | 1.6 | 9.7 | 0.00 | 1.93 | 1.27 | 54 | 1013.7 |
| 20260506215445 | 13 | 220 | 3.2 | 9.7 | 0.00 | 1.93 | 1.27 | 52 | 1014.2 |
| 20260506215213 | 13 | 305 | 3.2 | 9.7 | 0.00 | 1.96 | 1.27 | 51 | 1014.0 |
| 20260506214444 | 13 | 310 | 3.2 | 6.4 | 0.00 | 1.96 | 1.27 | 57 | 1013.6 |
| 20260506214215 | 13 | 29 | 3.2 | 8.0 | 0.00 | 1.96 | 1.27 | 54 | 1013.6 |
| 20260506213446 | 13 | 5 | 3.2 | 9.7 | 0.00 | 1.96 | 1.27 | 53 | 1014.1 |
| 20260506212942 | 13 | 314 | 4.8 | 9.7 | 0.00 | 1.96 | 1.27 | 51 | 1014.1 |
| 20260506212443 | 13 | 4 | 4.8 | 9.7 | 0.00 | 1.96 | 1.27 | 51 | 1013.9 |
| 20260506211942 | 13 | 32 | 3.2 | 9.7 | 0.00 | 1.96 | 1.27 | 51 | 1013.8 |
| 20260506211705 | 13 | 355 | 3.2 | 9.7 | 0.00 | 1.96 | 1.27 | 50 | 1013.7 |
| 20260506210945 | 13 | 16 | 1.6 | 8.0 | 0.00 | 1.96 | 1.27 | 54 | 1013.3 |
| 20260506210444 | 13 | 290 | 1.6 | 6.4 | 0.00 | 1.96 | 1.27 | 51 | 1013.5 |
| 20260506205945 | 13 | 0 | 1.6 | 6.4 | 0.00 | 1.96 | 1.27 | 51 | 1013.4 |
| 20260506205446 | 13 | 0 | 3.2 | 8.0 | 0.00 | 1.96 | 1.27 | 56 | 1013.6 |
| 20260506205204 | 13 | 76 | 3.2 | 8.0 | 0.00 | 1.96 | 1.27 | 49 | 1013.8 |
| 20260506204445 | 13 | 69 | 3.2 | 9.7 | 0.00 | 1.98 | 1.27 | 52 | 1013.4 |
| 20260506203944 | 13 | 296 | 3.2 | 9.7 | 0.00 | 1.98 | 1.27 | 51 | 1013.5 |
| 20260506203439 | 13 | 331 | 3.2 | 9.7 | 0.00 | 1.98 | 1.27 | 51 | 1013.5 |
| 20260506202939 | 13 | 354 | 3.2 | 9.7 | 0.00 | 1.98 | 1.27 | 52 | 1013.8 |
| 20260506202658 | 13 | 11 | 3.2 | 6.4 | 0.00 | 2.01 | 1.27 | 50 | 1013.7 |
| 20260506201940 | 13 | 314 | 3.2 | 9.7 | 0.00 | 2.03 | 1.27 | 51 | 1013.8 |
| 20260506201440 | 13 | 36 | 3.2 | 11.3 | 0.00 | 2.03 | 1.27 | 53 | 1013.5 |
| 20260506200940 | 13 | 347 | 3.2 | 11.3 | 0.00 | 2.06 | 1.27 | 54 | 1013.5 |
| 20260506200440 | 13 | 31 | 3.2 | 9.7 | 0.00 | 2.06 | 1.27 | 53 | 1013.5 |
| 20260506200203 | 13 | 97 | 3.2 | 8.0 | 0.00 | 2.08 | 1.27 | 53 | 1013.7 |
| 20260506195439 | 14 | 349 | 3.2 | 14.5 | 0.00 | 2.11 | 1.27 | 55 | 1013.6 |
| 20260506194939 | 13 | 217 | 6.4 | 14.5 | 0.00 | 2.13 | 1.27 | 57 | 1013.4 |
| 20260506194434 | 14 | 22 | 6.4 | 12.9 | 0.00 | 2.16 | 1.27 | 54 | 1013.7 |
| 20260506193932 | 14 | 46 | 6.4 | 11.3 | 0.00 | 2.21 | 1.27 | 51 | 1013.4 |
| 20260506193434 | 14 | 59 | 4.8 | 11.3 | 0.00 | 2.29 | 1.27 | 53 | 1013.6 |
| 20260506192933 | 14 | 10 | 4.8 | 12.9 | 0.00 | 2.41 | 1.27 | 50 | 1013.7 |
| 20260506192434 | 14 | 31 | 6.4 | 12.9 | 0.00 | 2.54 | 1.27 | 50 | 1013.4 |
| 20260506191933 | 14 | 41 | 6.4 | 16.1 | 0.00 | 2.59 | 1.27 | 49 | 1013.6 |
| 20260506191432 | 14 | 6 | 6.4 | 16.1 | 0.00 | 2.59 | 1.27 | 51 | 1013.5 |
| 20260506190932 | 14 | 330 | 4.8 | 11.3 | 0.00 | 2.59 | 1.27 | 47 | 1013.9 |
| 20260506190432 | 14 | 240 | 4.8 | 11.3 | 0.00 | 2.59 | 1.27 | 47 | 1013.5 |
| 20260506185932 | 14 | 6 | 4.8 | 12.9 | 0.00 | 2.59 | 1.27 | 51 | 1013.5 |
| 20260506185432 | 14 | 334 | 4.8 | 12.9 | 0.00 | 2.59 | 1.27 | 58 | 1013.4 |
| 20260506185157 | 13 | 62 | 6.4 | 11.3 | 0.00 | 2.59 | 1.27 | 50 | 1013.8 |
| 20260506184433 | 14 | 299 | 6.4 | 11.3 | 0.00 | 2.59 | 1.27 | 49 | 1013.4 |
| 20260506183931 | 14 | 44 | 6.4 | 12.9 | 0.00 | 2.57 | 1.27 | 52 | 1013.4 |
| 20260506183710 | 14 | 39 | 6.4 | 12.9 | 0.00 | 2.57 | 1.27 | 49 | 1013.5 |
| 20260506183158 | 14 | 338 | 6.4 | 14.5 | 0.00 | 2.57 | 1.27 | 51 | 1013.5 |
| 20260506182431 | 14 | 64 | 6.4 | 16.1 | 0.00 | 2.57 | 1.27 | 50 | 1013.1 |
| 20260506181932 | 14 | 15 | 6.4 | 16.1 | 0.00 | 2.57 | 1.27 | 49 | 1013.6 |
| 20260506181917 | 14 | 85 | 6.4 | 16.1 | 0.00 | 2.57 | 1.27 | 51 | 1013.6 |
| 20260506180931 | 14 | 11 | 6.4 | 14.5 | 0.00 | 2.57 | 1.27 | 50 | 1013.2 |
| 20260506180431 | 15 | 21 | 8.0 | 16.1 | 0.00 | 2.57 | 1.27 | 49 | 1013.4 |
| 20260506175932 | 15 | 46 | 6.4 | 16.1 | 0.00 | 2.57 | 1.27 | 56 | 1013.4 |
| 20260506175431 | 15 | 283 | 6.4 | 14.5 | 0.00 | 2.57 | 1.27 | 54 | 1013.3 |
| 20260506174932 | 15 | 299 | 6.4 | 14.5 | 0.00 | 2.57 | 1.27 | 51 | 1013.8 |
| 20260506174430 | 15 | 299 | 4.8 | 16.1 | 0.00 | 2.57 | 1.27 | 53 | 1014.1 |
| 20260506174156 | 14 | 352 | 4.8 | 16.1 | 0.00 | 2.57 | 1.27 | 54 | 1013.6 |
| 20260506173427 | 14 | 21 | 4.8 | 14.5 | 0.00 | 2.57 | 1.27 | 57 | 1013.4 |
| 20260506172925 | 13 | 296 | 6.4 | 14.5 | 0.00 | 2.57 | 1.27 | 55 | 1013.4 |
| 20260506172425 | 14 | 65 | 6.4 | 16.1 | 0.00 | 2.57 | 1.27 | 56 | 1013.5 |
| 20260506171925 | 13 | 355 | 6.4 | 16.1 | 0.00 | 2.57 | 1.27 | 54 | 1013.1 |
| 20260506171425 | 14 | 315 | 6.4 | 12.9 | 0.00 | 2.57 | 1.27 | 55 | 1014.3 |
| 20260506170926 | 13 | 83 | 6.4 | 12.9 | 0.00 | 2.57 | 1.27 | 57 | 1013.6 |
| 20260506170424 | 13 | 73 | 6.4 | 14.5 | 0.00 | 2.57 | 1.27 | 57 | 1013.7 |
| 20260506165926 | 13 | 71 | 6.4 | 14.5 | 0.00 | 2.57 | 1.27 | 53 | 1014.1 |
| 20260506165425 | 13 | 88 | 6.4 | 12.9 | 0.00 | 2.57 | 1.27 | 55 | 1013.9 |
| 20260506164926 | 13 | 23 | 4.8 | 14.5 | 0.00 | 2.57 | 1.27 | 58 | 1013.6 |
| 20260506164424 | 13 | 25 | 4.8 | 14.5 | 0.00 | 2.57 | 1.27 | 56 | 1014.1 |
| 20260506163924 | 13 | 117 | 3.2 | 11.3 | 0.00 | 2.57 | 1.27 | 58 | 1013.3 |
| 20260506163424 | 13 | 277 | 4.8 | 11.3 | 0.00 | 2.57 | 1.27 | 57 | 1013.7 |
| 20260506162925 | 13 | 353 | 6.4 | 14.5 | 0.00 | 2.57 | 1.27 | 57 | 1013.9 |
| 20260506162424 | 13 | 54 | 4.8 | 14.5 | 0.00 | 2.57 | 1.27 | 58 | 1013.5 |
| 20260506161925 | 13 | 339 | 4.8 | 11.3 | 0.00 | 2.57 | 1.27 | 59 | 1013.8 |
| 20260506161701 | 12 | 347 | 4.8 | 12.9 | 0.00 | 2.57 | 1.27 | 57 | 1013.6 |
| 20260506161151 | 12 | 287 | 6.4 | 12.9 | 0.00 | 2.57 | 1.27 | 63 | 1013.6 |
| 20260506160425 | 12 | 263 | 4.8 | 12.9 | 0.00 | 2.57 | 1.27 | 62 | 1013.5 |
| 20260506155925 | 12 | 318 | 4.8 | 12.9 | 0.00 | 2.57 | 1.27 | 65 | 1013.3 |
| 20260506155426 | 12 | 37 | 4.8 | 14.5 | 0.00 | 2.57 | 1.27 | 64 | 1013.3 |
| 20260506154924 | 12 | 358 | 4.8 | 14.5 | 0.00 | 2.57 | 1.27 | 62 | 1013.4 |
| 20260506154421 | 12 | 316 | 3.2 | 14.5 | 0.00 | 2.57 | 1.27 | 65 | 1013.6 |
| 20260506154152 | 12 | 129 | 4.8 | 14.5 | 0.00 | 2.57 | 1.27 | 63 | 1013.7 |
| 20260506153423 | 12 | 82 | 6.4 | 14.5 | 0.00 | 2.57 | 1.27 | 65 | 1013.6 |
| 20260506152921 | 12 | 0 | 4.8 | 14.5 | 0.00 | 2.57 | 1.27 | 64 | 1013.4 |
| 20260506152419 | 11 | 43 | 6.4 | 12.9 | 0.00 | 2.57 | 1.27 | 64 | 1013.5 |
| 20260506151920 | 11 | 43 | 4.8 | 12.9 | 0.00 | 2.57 | 1.27 | 66 | 1013.4 |
| 20260506151420 | 11 | 346 | 4.8 | 12.9 | 0.00 | 2.57 | 1.27 | 66 | 1013.3 |
| 20260506150918 | 11 | 354 | 6.4 | 12.9 | 0.00 | 2.57 | 1.27 | 64 | 1013.1 |
| 20260506150645 | 11 | 18 | 6.4 | 12.9 | 0.00 | 2.57 | 1.27 | 65 | 1013.2 |
| 20260506145919 | 11 | 334 | 6.4 | 14.5 | 0.00 | 2.57 | 1.27 | 65 | 1012.9 |
| 20260506145647 | 11 | 42 | 6.4 | 14.5 | 0.00 | 2.57 | 1.27 | 69 | 1012.7 |
| 20260506144917 | 11 | 10 | 6.4 | 14.5 | 0.00 | 2.57 | 1.27 | 68 | 1012.6 |
| 20260506144417 | 11 | 322 | 6.4 | 14.5 | 0.00 | 2.57 | 1.27 | 69 | 1012.4 |
| 20260506144144 | 11 | 304 | 4.8 | 14.5 | 0.00 | 2.57 | 1.27 | 73 | 1012.1 |
| 20260506143417 | 10 | 4 | 6.4 | 17.7 | 0.00 | 2.57 | 1.27 | 73 | 1012.2 |
| 20260506142918 | 10 | 336 | 8.0 | 17.7 | 0.00 | 2.57 | 1.27 | 71 | 1012.3 |
| 20260506142417 | 10 | 75 | 6.4 | 12.9 | 0.00 | 2.57 | 1.27 | 77 | 1012.2 |
| 20260506141917 | 10 | 93 | 4.8 | 11.3 | 0.00 | 2.57 | 1.27 | 75 | 1012.3 |
| 20260506141417 | 10 | 72 | 4.8 | 14.5 | 0.00 | 2.57 | 1.27 | 76 | 1012.2 |
| 20260506140918 | 10 | 303 | 6.4 | 14.5 | 0.00 | 2.57 | 1.27 | 77 | 1012.0 |
| 20260506140911 | 10 | 328 | 6.4 | 14.5 | 0.00 | 2.57 | 1.27 | 78 | 1012.0 |
| 20260506135918 | 10 | 357 | 4.8 | 11.3 | 0.00 | 2.57 | 1.27 | 78 | 1012.0 |
| 20260506135420 | 9 | 298 | 4.8 | 12.9 | 0.00 | 2.57 | 1.27 | 81 | 1011.9 |
| 20260506134412 | 9 | 34 | 4.8 | 9.7 | 0.00 | 2.57 | 1.27 | 81 | 1012.2 |
| 20260506133902 | 8 | 272 | 4.8 | 9.7 | 0.00 | 2.57 | 1.27 | 83 | 1012.1 |
| 20260506133633 | 8 | 74 | 4.8 | 9.7 | 0.00 | 2.57 | 1.27 | 83 | 1012.0 |
| 20260506132900 | 8 | 292 | 3.2 | 8.0 | 0.00 | 2.57 | 1.27 | 84 | 1011.9 |
| 20260506132846 | 8 | 305 | 3.2 | 8.0 | 0.00 | 2.57 | 1.27 | 84 | 1011.6 |
| 20260506131852 | 8 | 333 | 3.2 | 8.0 | 0.00 | 2.57 | 1.27 | 84 | 1011.6 |
| 20260506131349 | 8 | 344 | 3.2 | 6.4 | 0.00 | 2.57 | 1.27 | 85 | 1011.7 |
| 20260506130848 | 8 | 24 | 3.2 | 11.3 | 0.00 | 2.57 | 1.27 | 85 | 1011.7 |
| 20260506130616 | 8 | 314 | 3.2 | 11.3 | 0.00 | 2.57 | 1.27 | 86 | 1011.7 |
| 20260506125852 | 8 | 356 | 4.8 | 9.7 | 0.00 | 2.57 | 1.27 | 85 | 1011.5 |
| 20260506125845 | 8 | 284 | 3.2 | 9.7 | 0.00 | 2.57 | 1.27 | 85 | 1011.3 |
| 20260506125113 | 8 | 336 | 3.2 | 9.7 | 0.00 | 2.57 | 1.27 | 87 | 1011.3 |
| 20260506124337 | 8 | 26 | 4.8 | 9.7 | 0.00 | 2.57 | 1.27 | 87 | 1011.2 |
| 20260506123837 | 8 | 8 | 3.2 | 9.7 | 0.00 | 2.57 | 1.27 | 87 | 1011.1 |
| 20260506123816 | 7 | 312 | 3.2 | 8.0 | 0.00 | 2.57 | 1.27 | 89 | 1010.9 |
| 20260506122834 | 7 | 2 | 3.2 | 8.0 | 0.00 | 2.57 | 1.27 | 87 | 1011.1 |
| 20260506122330 | 7 | 6 | 3.2 | 8.0 | 0.00 | 2.57 | 1.27 | 88 | 1011.0 |
| 20260506122049 | 7 | 0 | 4.8 | 8.0 | 0.00 | 2.57 | 1.27 | 88 | 1011.0 |
| 20260506121328 | 7 | 34 | 3.2 | 8.0 | 0.00 | 2.57 | 1.27 | 89 | 1010.9 |
| 20260506120829 | 7 | 64 | 3.2 | 6.4 | 0.00 | 2.57 | 1.27 | 90 | 1010.8 |
| 20260506120329 | 7 | 11 | 3.2 | 6.4 | 0.00 | 2.57 | 1.27 | 89 | 1010.8 |
| 20260506115829 | 7 | 289 | 3.2 | 6.4 | 0.00 | 2.57 | 1.27 | 90 | 1010.6 |
| 20260506115316 | 7 | 41 | 3.2 | 6.4 | 0.00 | 2.59 | 1.27 | 91 | 1010.5 |
| 20260506114816 | 7 | 82 | 3.2 | 6.4 | 0.00 | 2.59 | 1.27 | 91 | 1010.3 |
| 20260506114315 | 7 | 350 | 3.2 | 6.4 | 0.00 | 2.59 | 1.27 | 90 | 1010.2 |
| 20260506113816 | 7 | 324 | 4.8 | 6.4 | 0.00 | 2.59 | 1.27 | 90 | 1010.0 |
| 20260506113316 | 7 | 12 | 3.2 | 6.4 | 0.00 | 2.59 | 1.27 | 90 | 1009.9 |
| 20260506112817 | 7 | 62 | 3.2 | 6.4 | 0.00 | 2.59 | 1.27 | 91 | 1009.6 |
| 20260506112313 | 7 | 67 | 3.2 | 11.3 | 0.00 | 2.59 | 1.27 | 91 | 1009.7 |
| 20260506111808 | 6 | 57 | 4.8 | 11.3 | 0.00 | 2.59 | 1.27 | 91 | 1009.6 |
| 20260506111302 | 6 | 335 | 3.2 | 11.3 | 0.00 | 2.59 | 1.27 | 92 | 1009.6 |
| 20260506111022 | 6 | 303 | 3.2 | 6.4 | 0.00 | 2.59 | 1.27 | 94 | 1009.4 |
| 20260506110302 | 6 | 318 | 3.2 | 6.4 | 0.00 | 2.59 | 1.27 | 95 | 1009.4 |
| 20260506105802 | 6 | 99 | 3.2 | 4.8 | 0.00 | 2.59 | 1.27 | 95 | 1009.2 |
| 20260506105305 | 6 | 350 | 3.2 | 6.4 | 0.00 | 2.59 | 1.27 | 95 | 1008.9 |
| 20260506104802 | 6 | 0 | 3.2 | 6.4 | 0.00 | 2.59 | 1.27 | 95 | 1008.7 |
| 20260506104302 | 7 | 23 | 1.6 | 4.8 | 0.00 | 2.59 | 1.27 | 96 | 1008.6 |
| 20260506103758 | 7 | 19 | 1.6 | 3.2 | 0.00 | 2.59 | 1.27 | 96 | 1008.8 |
| 20260506103257 | 6 | 281 | 3.2 | 6.4 | 0.00 | 2.59 | 1.27 | 95 | 1009.1 |
| 20260506103014 | 6 | 192 | 3.2 | 6.4 | 0.00 | 2.59 | 1.27 | 95 | 1008.9 |
| 20260506102250 | 7 | 352 | 3.2 | 6.4 | 0.00 | 2.59 | 1.27 | 95 | 1008.1 |
| 20260506101749 | 7 | 5 | 3.2 | 8.0 | 0.00 | 2.62 | 1.27 | 96 | 1008.0 |
| 20260506101251 | 7 | 349 | 3.2 | 8.0 | 0.00 | 2.64 | 1.27 | 96 | 1008.1 |
| 20260506101010 | 7 | 321 | 3.2 | 6.4 | 0.00 | 2.64 | 1.27 | 96 | 1007.7 |
| 20260506100252 | 7 | 16 | 1.6 | 6.4 | 0.00 | 2.67 | 1.27 | 96 | 1007.8 |
| 20260506100239 | 7 | 253 | 1.6 | 3.2 | 0.00 | 2.72 | 1.27 | 96 | 1008.0 |
| 20260506095252 | 7 | 1 | 1.6 | 3.2 | 0.00 | 2.74 | 1.27 | 96 | 1008.1 |
| 20260506094751 | 7 | 315 | 1.6 | 4.8 | 0.00 | 2.77 | 1.27 | 96 | 1008.1 |
| 20260506094518 | 7 | 329 | 1.6 | 4.8 | 0.00 | 2.79 | 1.27 | 96 | 1008.0 |